Regional Weather Roundup
Issued by NWS

Home | Current Version | Previous Version | Graphics & Text | Print | Product List | Glossary On
Versions: 1 2 3 4 5 6 7 8 9 10 11 12 13 14 15 16 17 18 19 20 21 22 23 24 25 26 27 28 29 30 31 32 33 34 35 36 37 38 39 40 41 42 43 44 45 46 47 48 49 50
000
ASUS45 KCYS 010710
RWRWY

WYOMING REGIONAL WEATHER ROUNDUP
NATIONAL WEATHER SERVICE CHEYENNE WY
100 AM MDT MON SEP 01 2014

NOTE:  "FAIR" INDICATES FEW OR NO CLOUDS BELOW 12,000 FEET
WITH NO SIGNIFICANT WEATHER AND/OR OBSTRUCTIONS TO VISIBILITY.

WYZ001-010800-
YELLOWSTONE NATIONAL PARK

CITY           SKY/WX    TMP DP  RH WIND       PRES   REMARKS
LK YELLOWSTONE   N/A     38  35  89 CALM      30.15F
W YELLOWSTONE  NOT AVBL

$$
WYZ002>013-054>058-071-098>099-010800-
NORTHERN WYOMING

CITY           SKY/WX    TMP DP  RH WIND       PRES   REMARKS
JACKSON        PTCLDY    41  39  93 CALM      30.10F
CODY             N/A    N/A N/A N/A MISG        N/A
GREYBULL       MOCLDY    55  51  86 CALM      29.97S
WORLAND        MOCLDY    51  46  83 SW5       29.98S
SHERIDAN       MOCLDY    48  43  82 SW6       29.94F
BUFFALO        MOCLDY    50  42  74 CALM      29.99F
GILLETTE       CLEAR     51  45  79 W9        29.96R
HULETT         FAIR      46  45  93 MISG      29.95
NEWCASTLE      FAIR      46  45  93 CALM      29.97

$$
WYZ014>020-022>026-101>103-010800-
CENTRAL WYOMING

CITY           SKY/WX    TMP DP  RH WIND       PRES   REMARKS
BIG PINEY      CLEAR     37  33  85 NE3       30.14S
PINEDALE       SUNNY     34  34 100 W5        30.15S WCI  30
DUBOIS         FAIR      41  34  75 NW7       30.10S
LANDER         PTCLDY    51  35  54 SW8       30.04R
RIVERTON       PTCLDY    49  41  74 W5        30.05R
CASPER         PTCLDY    46  42  86 W3        30.02F
DOUGLAS        CLEAR     47  45  93 N7        30.02S

$$
WYZ021-027>030-104>119-010800-
SOUTHERN WYOMING

CITY           SKY/WX    TMP DP  RH WIND       PRES   REMARKS
EVANSTON       PTCLDY    48  30  49 S5        30.15R
KEMMERER       SUNNY     41  32  70 N8        30.15F
FORT BRIDGER   FAIR      50  31  48 W7        30.17S
ROCK SPRINGS   CLEAR     49  35  58 S3        30.13S
DIXON          CLOUDY    49  43  78 CALM      30.16R
RAWLINS        CLEAR     45  36  70 SW6       30.11R
SARATOGA       FAIR      43  37  81 S5        30.14R
LARAMIE        CLOUDY    48  36  63 S3        30.12R
CHEYENNE       CLEAR     46  42  86 W3        30.07S
TORRINGTON     CLEAR     50  48  93 W5        29.97R
PINE BLUFFS    FAIR      45  43  93 W6        30.04R

$$



USA.gov is the U.S. government's official web portal to all federal, state and local government web resources and services.